This demonstration page uses our WeatherBlox Daily Observations layout. Learn more.

Left ArrowRight Arrow

Hourly Observations for October 16, 2021

Temp ( °F °C ) Dew Point ( °F °C ) Humidity (%) Winds ( mph kmh ) Pressure ( in mb ) Visibility ( mi km ) Precip ( " mm )
12:15 am 00:15 Clear 39 4 28 -2.5 63 63 W 7 11 30.31 1026 10 16 N/A
12:35 am 00:35 Clear 39 3.7 28 -2.5 64 64 W 7 11 30.31 1026 10 16 N/A
12:55 am 00:55 Clear 40 4.5 27 -2.7 60 60 W 8 13 30.29 1026 10 16 N/A
1:15 am 01:15 Clear 39 4 27 -2.7 62 62 W 7 11 30.30 1026 10 16 N/A
1:35 am 01:35 Clear 38 3.3 28 -2.5 66 66 W 6 9 30.31 1027 10 16 N/A
1:55 am 01:55 Clear 37 2.9 27 -2.6 67 67 W 7 11 30.32 1027 10 16 N/A
2:15 am 02:15 Clear 37 3 28 -2.3 68 68 W 7 11 30.33 1027 10 16 N/A
2:35 am 02:35 Clear 38 3.2 27 -2.7 66 66 W 6 9 30.32 1027 10 16 N/A
2:55 am 02:55 Clear 37 2.6 27 -3 67 67 WNW 6 9 30.32 1027 10 16 N/A
3:15 am 03:15 Clear 36 2 27 -3 70 70 WNW 6 9 30.33 1027 10 16 N/A
3:30 am 03:30 Clear 36 2.1 28 -2.3 73 73 W 9 15 30.34 1027 10 16 N/A
3:55 am 03:55 Clear 37 2.9 28 -2.5 68 68 W 8 13 30.33 1027 10 16 N/A
4:15 am 04:15 Clear 35 1.9 27 -2.6 72 72 W 7 11 30.34 1027 10 16 N/A
4:35 am 04:35 Clear 36 2.2 27 -2.6 71 71 W 7 11 30.34 1028 10 16 N/A
4:55 am 04:55 Clear 36 2.1 27 -2.6 71 71 W 8 13 30.35 1028 10 16 N/A
5:15 am 05:15 Clear 36 2.1 27 -2.7 71 71 W 7 11 30.35 1028 10 16 N/A
5:35 am 05:35 Clear 36 2.3 27 -3 68 68 W 7 11 30.35 1028 10 16 N/A
5:55 am 05:55 Clear 36 2 27 -3 70 70 WNW 5 7 30.36 1028 10 16 N/A
6:15 am 06:15 Clear 33 0.5 27 -2.8 79 79 WNW 5 7 30.37 1028 10 16 N/A
6:35 am 06:35 Clear 33 0.3 27 -2.8 80 80 WNW 5 7 30.37 1029 10 16 N/A
6:55 am 06:55 Clear 33 0.5 27 -3 78 78 W 5 7 30.39 1029 10 16 N/A
7:15 am 07:15 Clear 33 0.7 27 -2.8 78 78 W 3 6 30.39 1029 10 16 N/A
7:35 am 07:35 Clear 34 1 27 -2.8 76 76 WNW 3 6 30.39 1029 10 16 N/A
7:55 am 07:55 Sunny 33 0.6 27 -3 77 77 N N/A 30.39 1029 10 16 N/A
8:15 am 08:15 Sunny 34 1.1 27 -2.9 75 75 W 3 6 30.39 1029 10 16 N/A
8:35 am 08:35 Sunny 36 2.3 28 -2.5 71 71 WSW 3 6 30.37 1029 10 16 N/A
8:55 am 08:55 Sunny 40 4.4 28 -2 63 63 WSW 5 7 30.35 1028 10 16 N/A
9:15 am 09:15 Sunny 44 6.5 28 -2 55 55 WSW 5 7 30.33 1027 10 16 N/A
9:35 am 09:35 Sunny 46 7.8 28 -2 50 50 WSW 3 6 30.32 1027 10 16 N/A
9:55 am 09:55 Sunny 47 8.5 29 -1.8 49 49 WSW 9 15 30.32 1027 10 16 N/A
10:15 am 10:15 Sunny 47 8.5 30 -1 52 52 W 8 13 30.32 1027 10 16 N/A
10:35 am 10:35 Sunny 49 9.2 31 -0.7 50 50 W 9 15 30.31 1026 10 16 N/A
10:55 am 10:55 Sunny 51 10.6 30 -1 45 45 WNW 8 13 30.30 1026 10 16 N/A
11:15 am 11:15 Sunny 53 11.5 31 -0.5 44 44 W 10 17 30.29 1026 10 16 N/A
11:35 am 11:35 Sunny 54 12.2 31 -0.3 42 42 W 8 13 30.28 1026 10 16 N/A
11:55 am 11:55 Sunny 55 13 32 0.1 41 41 WNW 6 9 30.28 1025 10 16 N/A
12:15 pm 12:15 Sunny 58 14.5 32 -0.1 37 37 W 6 9 30.26 1025 10 16 N/A
12:35 pm 12:35 Sunny 60 15.7 31 -0.5 33 33 WNW 9 15 30.24 1024 10 16 N/A
12:55 pm 12:55 Sunny 62 16.6 30 -1 30 30 NW 8 13 30.24 1024 10 16 N/A
1:15 pm 13:15 Sunny 63 17.1 29 -1.8 28 28 NNW 9 15 30.22 1023 10 16 N/A
1:35 pm 13:35 Sunny 63 17.2 29 -1.8 27 27 NW 10 17 30.22 1023 10 16 N/A
1:55 pm 13:55 Sunny 64 17.8 30 -1.2 28 28 NNW 9 15 30.20 1023 10 16 N/A
2:15 pm 14:15 Sunny 64 18 29 -1.5 27 27 NNW 9 15 30.19 1022 10 16 N/A
2:35 pm 14:35 Sunny 65 18.2 30 -1.2 27 27 NNW 6 9 30.18 1022 10 16 N/A
2:55 pm 14:55 Sunny 65 18.3 30 -1 27 27 NW 7 11 30.18 1022 10 16 N/A
3:15 pm 15:15 Sunny 65 18.6 30 -1.3 26 26 NW 7 11 30.18 1022 10 16 N/A
3:35 pm 15:35 Sunny 65 18.6 29 -1.4 26 26 NW 8 13 30.18 1022 10 16 N/A
3:55 pm 15:55 Sunny 66 19 29 -1.5 25 25 NW 7 11 30.16 1021 10 16 N/A
4:15 pm 16:15 Sunny 67 19.2 30 -1.2 25 25 NW 9 15 30.16 1021 10 16 N/A
4:35 pm 16:35 Sunny 67 19.2 30 -1.1 25 25 NW 8 13 30.16 1021 10 16 N/A
4:55 pm 16:55 Sunny 67 19.5 31 -0.8 26 26 NNW 8 13 30.16 1021 10 16 N/A
5:15 pm 17:15 Sunny 67 19.3 30 -1 26 26 N N/A 30.15 1021 10 16 N/A
5:35 pm 17:35 Sunny 67 19.2 31 -0.6 26 26 N 3 6 30.15 1021 10 16 N/A
5:55 pm 17:55 Sunny 66 18.8 31 -0.4 28 28 N N/A 30.16 1021 10 16 N/A
6:15 pm 18:15 Sunny 65 18.5 32 undefined 29 29 N N/A 30.16 1021 10 16 N/A
6:35 pm 18:35 Sunny 64 17.6 33 0.3 31 31 N N/A 30.17 1022 10 16 N/A
6:55 pm 18:55 Sunny 61 15.9 33 0.8 36 36 N N/A 30.18 1022 10 16 N/A
7:15 pm 19:15 Clear 60 15.5 32 -0.1 35 35 N N/A 30.18 1022 10 16 N/A
7:35 pm 19:35 Clear 56 13.1 34 1.3 45 45 SE 3 6 30.21 1023 10 16 N/A
7:55 pm 19:55 Clear 54 12 35 1.5 49 49 N N/A 30.23 1024 10 16 N/A
8:15 pm 20:15 Clear 54 12.4 33 0.8 45 45 S 6 9 30.22 1023 10 16 N/A
8:35 pm 20:35 Clear 53 11.6 34 1 48 48 S 6 9 30.23 1024 10 16 N/A
8:55 pm 20:55 Clear 52 10.9 33 0.5 49 49 S 5 7 30.23 1024 10 16 N/A
9:15 pm 21:15 Clear 52 11.1 33 0.3 48 48 S 5 7 30.23 1024 10 16 N/A
9:35 pm 21:35 Clear 52 11.2 33 0.6 48 48 SSW 7 11 30.23 1024 10 16 N/A
9:55 pm 21:55 Clear 51 10.7 33 0.6 50 50 SSW 5 7 30.25 1024 10 16 N/A
10:15 pm 22:15 Clear 51 10.7 33 0.7 50 50 SSW 5 7 30.25 1024 10 16 N/A
10:35 pm 22:35 Clear 50 10.1 34 0.9 53 53 SSW 7 11 30.25 1024 10 16 N/A
10:55 pm 22:55 Clear 50 10 34 1.1 54 54 SSW 7 11 30.25 1024 10 16 N/A
11:15 pm 23:15 Clear 50 10 34 1.1 54 54 SSW 7 11 30.24 1024 10 16 N/A
11:35 pm 23:35 Clear 51 10.5 34 1.3 53 53 SSW 7 11 30.24 1024 10 16 N/A
11:55 pm 23:55 Clear 50 9.8 35 1.5 57 57 SSW 7 11 30.24 1024 10 16 N/A

Powered by AerisWeather